This is the latest recevied weather packets stored in our database for station/object VE3DVC. If no packets are shown the sender has not sent any weather packets the latest 10 day(s).
| Time | Temp. | Humidity | Pressure | Rain* | Wind** | Luminosity | Snow |
|---|---|---|---|---|---|---|---|
| 1777878506 | 11.11° C | 69% | 1007.4 hPa | 0 mm | - | - | - |
| 1777877397 | 11.11° C | 69% | 1007.7 hPa | 0 mm | - | - | - |
| 1777876677 | 10.56° C | 70% | 1007.8 hPa | 0 mm | - | - | - |
| 1777875958 | 10.56° C | 70% | 1008 hPa | 0 mm | - | - | - |
| 1777875237 | 10.56° C | 71% | 1008.2 hPa | 0 mm | - | - | - |
| 1777874517 | 10.56° C | 71% | 1008.4 hPa | 0 mm | - | - | - |
| 1777873286 | 10.56° C | 73% | 1008.5 hPa | 0 mm | - | - | - |
| 1777872566 | 10.56° C | 73% | 1008.5 hPa | 0 mm | - | - | - |
| 1777871846 | 10.56° C | 72% | 1008.8 hPa | 0 mm | - | - | - |
| 1777871126 | 10.56° C | 72% | 1008.9 hPa | 0 mm | - | - | - |
| 1777870406 | 11.11° C | 71% | 1009 hPa | 0 mm | - | - | - |
| 1777869133 | 11.67° C | 69% | 1009 hPa | 0 mm | - | - | - |
| 1777868413 | 11.67° C | 66% | 1009 hPa | 0 mm | - | - | - |
| 1777867692 | 11.67° C | 69% | 1009 hPa | 0 mm | - | - | - |
| 1777866973 | 11.67° C | 70% | 1009.2 hPa | 0 mm | - | - | - |
| 1777866253 | 12.22° C | 70% | 1009.2 hPa | 0 mm | - | - | - |
| 1777865533 | 12.22° C | 69% | 1009.2 hPa | 0 mm | - | - | - |
| 1777864813 | 12.22° C | 66% | 1009.2 hPa | 0 mm | - | - | - |
| 1777864092 | 12.78° C | 64% | 1009.3 hPa | 0 mm | - | - | - |
| 1777863374 | 12.78° C | 61% | 1009.3 hPa | 0 mm | - | - | - |
| 1777862653 | 12.78° C | 57% | 1009.3 hPa | 0 mm | - | - | - |
| 1777861933 | 12.78° C | 55% | 1009.3 hPa | 0 mm | - | - | - |
| 1777861212 | 12.78° C | 55% | 1009.2 hPa | 0 mm | - | - | - |
| 1777860493 | 12.78° C | 54% | 1009.2 hPa | 0 mm | - | - | - |
| 1777859773 | 12.22° C | 55% | 1009.3 hPa | 0 mm | - | - | - |
* Rain latest hour (hover to see other rain measurements)
** Current wind speed in m/s (hover to see current wind gust speed)